Location: Unspecified
(0.0000°N, 0.0000°E)
Time: 05:06:36
(UTC+00:00)

Safir 2 - Pass Details

Date: 25 May 2026
Orbit: 804 x 808 km, 99.0° (Epoch: 11 June)

Event Time Altitude Azimuth Distance (km) Brightness Sun altitude
Rises 05:06:35 0° 354° (N) 3,300 11.5 -11.7°
Reaches altitude 10° 05:09:08 10° 344° (NNW) 2,373 10.6 -11.2°
Maximum altitude 05:13:43 31° 283° (WNW) 1,372 8.9 -10.1°
Drops below altitude 10° 05:18:20 10° 222° (SW) 2,382 10.0 -9.0°
Enters shadow 05:19:26 - 216° (SW) 2,774 10.4 -8.8°
